Theta_e
308 308 308 309 309 310 310 311 311 311 312 312 312 312 312 312 311 310 308 309 309 309 309 307 306 305 304 302 300 297 296 297 299 291 289 287 287 285 284 284 284 284 283
306 306 307 308 308 308 309 309 309 309 310 310 310 310 310 310 310 308 307 307 308 308 308 306 305 304 303 302 299 296 295 295 297 288 285 285 285 284 285 286 287 286 283
307 307 307 307 306 307 307 307 308 308 308 308 308 308 309 309 309 309 307 307 306 306 306 305 304 303 302 301 298 296 295 293 293 290 285 285 285 286 286 285 284 284 283
303 304 304 305 305 305 305 305 306 306 306 306 306 306 307 307 307 306 305 304 304 304 304 304 304 303 301 300 298 296 294 291 290 290 287 285 285 284 284 282 282 283 283
301 301 301 301 302 302 303 303 303 304 304 304 304 305 305 305 305 305 305 303 303 302 302 302 302 302 302 301 299 295 292 291 289 289 286 285 284 282 282 282 282 283 283
301 299 299 299 299 300 300 301 301 302 301 302 302 302 303 303 304 305 305 303 302 301 300 300 300 299 299 299 298 296 295 291 289 289 287 285 283 282 283 282 283 282 282
300 300 298 297 296 296 296 298 299 299 300 300 300 300 301 301 302 302 302 301 300 299 298 296 296 296 296 295 294 292 290 290 292 290 287 285 283 283 283 282 284 284 284
298 298 297 295 294 295 295 295 295 296 297 298 298 299 299 299 300 300 299 297 295 295 294 294 293 293 293 292 291 289 289 289 289 288 288 287 287 286 285 285 285 283 283
294 294 293 293 292 291 292 293 293 293 294 295 295 296 297 296 297 296 295 293 292 291 291 291 290 290 290 290 289 288 287 287 287 287 289 288 287 287 286 285 283 283 281
291 290 290 290 290 290 290 291 291 292 292 293 293 293 293 294 295 294 292 290 289 289 289 288 288 288 288 287 287 287 285 285 287 286 286 287 288 287 286 285 285 282 281
291 290 290 289 288 289 289 290 290 290 290 291 291 291 291 291 291 291 290 289 289 288 287 286 286 286 286 287 287 286 286 285 285 286 286 286 286 286 285 285 286 284 281
289 289 289 289 288 288 288 288 289 288 288 288 288 288 289 288 288 288 288 288 288 287 286 285 285 285 286 287 286 285 286 285 285 285 285 284 284 284 284 283 284 283 283
288 288 288 288 287 287 287 287 286 286 287 287 286 285 286 286 286 285 286 287 288 285 285 284 284 285 286 286 286 286 286 285 285 284 284 284 285 284 283 283 282 282 281
283 285 287 287 287 286 286 286 286 286 286 285 285 284 285 284 284 284 284 287 285 285 285 284 284 284 285 286 286 286 286 286 286 286 286 286 284 283 282 282 280 279 278
280 281 283 284 285 285 285 285 285 285 284 284 284 284 283 283 284 284 285 286 285 285 284 284 284 285 286 287 286 286 286 287 287 286 285 284 282 281 281 281 280 278 277
278 279 282 283 283 284 285 285 285 285 285 285 285 285 284 283 283 285 286 285 285 284 283 283 284 286 286 286 286 286 286 286 286 285 284 284 284 283 281 279 279 278 276
278 278 278 282 282 285 285 284 284 285 285 285 285 285 285 284 284 285 286 286 285 285 284 284 284 285 285 286 286 286 285 285 285 285 285 284 283 281 279 278 277 276 274
277 278 279 279 283 285 285 284 284 284 283 283 284 285 286 285 285 286 286 286 286 285 285 284 285 285 285 285 285 285 286 285 284 283 282 281 280 280 277 276 275 274 273
275 276 279 282 284 285 284 284 283 282 280 280 282 284 285 285 285 286 286 286 284 283 284 284 284 284 284 284 284 283 283 282 281 280 280 279 278 278 276 275 274 274 272
275 277 279 282 283 284 283 282 281 279 278 278 278 279 282 284 282 281 281 281 280 279 280 280 280 280 280 280 280 280 279 279 279 278 278 277 276 276 275 274 273 272 271
274 276 278 280 281 281 281 280 279 278 277 276 276 277 278 279 276 276 276 276 276 276 276 277 277 277 277 277 277 276 276 275 275 275 274 274 274 273 273 272 271 270 270
274 275 276 277 278 279 278 278 277 275 274 274 273 273 276 275 274 273 273 273 273 273 274 274 274 274 274 274 274 274 273 273 273 272 272 271 271 271 270 270 269 268 267
273 274 273 273 274 274 274 274 273 273 272 272 271 271 271 271 270 270 270 270 270 271 271 271 271 271 271 271 271 271 270 270 270 270 270 269 269 268 268 268 267 266 265
272 271 271 271 271 271 270 270 270 270 269 269 269 268 268 267 267 267 267 266 267 267 267 267 267 267 267 267 267 267 267 267 267 266 266 266 266 265 265 265 265 265 264
270 269 269 269 268 268 268 268 267 267 266 266 266 266 266 266 267 267 267 267 267 267 267 267 267 267 267 266 266 266 266 266 265 265 265 264 264 264 264 264 264 263 263
267 267 267 267 266 266 266 265 265 265 265 265 265 265 265 265 265 265 265 265 265 265 265 265 265 265 265 265 265 265 265 264 264 263 263 263 263 263 263 263 263 262 262
Wind_Speed
21 19 17 17 18 19 23 26 29 30 32 32 33 33 34 36 38 39 36 35 37 38 39 40 42 42 39 38 42 38 34 30 18 9 19 27 24 36 40 45 39 35 30
21 21 22 22 21 22 24 26 26 28 29 31 32 34 34 35 36 37 36 36 37 36 40 38 41 39 41 39 39 38 35 33 29 11 21 22 25 35 39 43 39 38 33
26 26 24 23 24 26 27 28 28 29 29 29 31 34 36 37 37 39 40 39 39 39 40 39 39 38 39 36 35 34 32 30 31 18 12 20 19 29 33 32 35 37 30
32 31 28 27 27 26 27 28 29 28 29 29 30 33 35 37 38 38 38 38 39 40 41 40 40 40 40 37 37 36 31 30 29 25 19 21 20 23 27 28 26 33 30
36 33 33 32 29 29 28 27 27 28 29 29 30 31 33 35 37 37 38 39 39 38 38 38 40 42 42 42 39 34 32 29 26 25 15 13 16 18 26 25 25 31 28
35 34 32 31 31 30 30 30 29 28 28 29 30 31 32 34 35 36 36 37 37 37 36 36 36 38 38 39 39 36 36 34 29 26 21 20 19 23 25 30 23 15 7
34 34 32 31 32 32 31 30 29 28 26 26 27 28 31 32 31 32 33 34 34 34 34 32 33 33 32 31 31 33 31 32 34 36 27 25 24 30 34 28 26 24 18
33 34 34 33 33 32 31 31 30 29 27 26 25 24 26 27 25 28 29 30 32 31 30 29 30 30 27 26 26 29 29 29 29 29 32 31 33 36 35 33 31 22 16
31 32 33 34 35 33 32 30 29 29 28 26 24 22 21 21 19 21 23 25 27 29 28 26 26 27 24 22 25 27 26 26 26 25 26 28 26 23 32 27 23 21 8
31 33 33 31 30 31 30 29 26 24 25 23 24 20 20 19 15 15 17 20 23 24 24 24 23 24 22 21 26 27 23 24 27 22 20 19 22 20 24 27 28 22 11
30 32 32 30 28 26 26 24 24 22 21 20 20 19 19 17 17 16 14 16 21 21 20 20 19 18 17 20 28 29 28 29 25 24 21 21 21 21 21 24 23 25 20
30 31 31 29 27 26 24 24 20 18 17 19 21 21 17 17 15 15 15 12 17 19 18 16 15 15 17 17 24 24 24 29 25 25 22 21 21 21 24 24 22 19 18
30 30 31 30 27 24 24 22 19 17 17 17 17 20 22 18 14 12 12 8 13 13 10 9 12 12 14 15 23 21 22 23 24 22 22 21 23 23 22 21 18 19 17
28 30 28 29 31 26 22 19 17 16 16 15 16 15 19 19 15 9 8 10 11 5 3 4 6 7 10 14 21 18 20 20 20 23 22 19 17 18 21 22 23 21 17
27 24 26 23 25 24 20 19 16 14 12 13 13 14 14 14 11 7 5 9 8 3 2 3 4 6 10 16 18 18 19 18 18 17 16 18 18 18 17 18 21 22 15
30 24 22 22 18 21 19 17 10 10 9 7 8 9 10 8 7 3 1 5 3 2 1 3 3 6 10 13 16 17 18 15 16 17 17 14 12 13 16 19 21 21 22
29 31 26 23 22 20 16 12 10 3 2 3 5 6 6 6 2 2 3 3 2 3 3 4 4 4 7 10 11 9 9 9 11 13 11 10 11 13 16 19 19 20 19
28 29 29 25 24 18 14 11 7 3 4 7 8 10 7 5 7 4 3 4 4 4 2 3 3 4 5 6 7 9 11 11 10 9 10 11 13 15 16 18 19 21 19
26 26 25 25 20 13 9 6 4 5 7 8 7 8 9 10 7 8 8 9 11 11 4 4 3 1 2 3 4 4 5 6 6 6 7 9 11 12 13 14 15 16 17
23 20 18 16 12 9 7 9 9 11 12 14 14 12 9 11 14 14 13 13 14 12 10 9 8 6 5 4 2 2 3 4 4 4 5 6 7 9 10 11 13 13 13
19 15 9 7 6 8 11 11 12 14 14 15 16 14 11 16 16 16 17 16 14 13 11 9 7 5 4 3 2 2 1 1 1 2 3 3 5 7 9 9 10 10 10
10 6 2 5 8 11 13 13 13 13 12 13 13 14 13 16 15 14 14 13 12 10 9 7 5 4 4 3 2 1 1 1 2 3 4 5 6 8 8 9 9 9 9
5 4 4 7 10 13 14 13 13 13 13 12 12 12 13 14 12 12 11 9 8 6 5 4 4 3 4 4 4 5 5 5 6 6 7 8 8 9 9 10 10 10 10
7 8 8 10 10 12 14 14 14 14 13 13 12 12 12 11 10 9 8 7 6 5 5 5 5 5 6 6 7 7 8 8 8 9 9 9 8 8 9 9 10 10 10
13 11 12 13 12 13 14 14 13 12 11 10 9 9 8 6 6 5 5 5 5 6 6 7 7 7 8 8 8 9 9 9 9 10 10 9 8 9 9 9 9 11 11
14 13 13 12 12 11 11 10 9 8 7 6 5 4 4 5 5 6 7 8 8 9 9 9 10 11 11 12 12 12 12 12 11 11 11 10 11 11 11 11 11 12 12
Wind_Direction
340 324 314 303 290 277 270 270 271 273 272 270 268 265 261 258 256 254 250 246 245 245 242 241 241 240 235 239 240 235 231 225 237 240 220 217 218 209 210 219 221 223 221
353 336 326 316 306 293 286 285 286 284 281 278 277 272 266 261 260 259 254 251 247 245 246 241 242 240 238 238 234 228 227 227 225 190 192 191 201 204 215 218 219 226 221
360 356 345 332 320 310 303 299 295 292 288 285 281 274 270 266 261 258 257 252 249 246 248 247 250 245 241 235 230 229 226 220 212 198 173 193 198 204 211 217 214 218 217
354 350 345 338 331 323 313 306 301 297 291 286 282 278 274 271 266 262 259 254 252 252 253 252 250 246 240 237 232 229 221 212 203 197 184 180 192 200 201 191 197 209 212
350 348 343 337 330 323 317 313 306 299 293 290 286 279 273 269 266 263 259 258 256 255 258 260 258 255 250 247 238 231 221 210 198 195 182 175 180 171 184 188 191 200 211
340 342 341 338 333 331 326 320 313 307 301 295 290 284 278 271 269 269 265 262 261 260 257 262 263 261 258 257 252 243 237 208 199 194 185 183 177 178 180 188 178 169 191
331 334 337 336 332 330 329 323 318 313 308 300 295 291 285 281 278 275 272 266 263 262 264 264 264 264 262 258 251 239 227 219 220 198 186 181 175 184 185 178 188 193 202
325 327 329 330 329 328 326 325 321 316 309 303 297 294 289 285 283 279 276 270 267 266 266 264 265 262 260 254 245 226 222 218 210 199 194 189 195 198 198 191 195 187 193
328 325 325 326 324 325 324 323 322 319 315 310 303 296 287 289 290 286 279 271 270 271 267 265 264 260 262 251 224 208 203 200 200 201 196 202 200 200 199 191 176 183 177
326 322 321 322 320 319 320 320 319 316 310 311 309 305 299 291 280 274 276 273 268 263 269 266 262 256 250 219 213 200 185 181 188 191 195 206 213 195 194 201 203 182 176
319 318 318 320 318 317 314 316 315 317 313 312 307 305 300 296 291 279 268 262 261 260 258 259 256 247 239 228 216 205 191 184 181 181 178 175 180 187 200 205 212 214 189
315 314 316 318 318 316 314 317 316 317 315 317 312 308 299 294 295 289 278 261 258 248 251 258 260 252 240 234 207 202 184 180 171 172 177 175 181 193 202 216 222 219 223
312 313 315 316 316 316 314 316 319 318 312 312 310 311 312 313 307 297 284 280 236 225 252 266 269 257 238 222 203 199 184 177 172 172 176 186 201 210 215 207 202 205 211
307 311 314 314 314 314 312 311 309 309 308 307 309 309 314 313 313 310 299 281 200 221 274 273 255 254 228 207 186 188 188 187 195 191 192 200 208 211 212 207 197 199 198
306 301 305 308 310 309 308 309 307 303 302 295 306 311 305 307 319 317 305 199 200 224 286 285 244 216 185 165 172 175 181 181 181 189 193 194 195 197 203 202 204 198 196
306 303 298 295 291 304 301 305 301 297 302 308 314 309 324 301 317 312 198 211 205 157 159 203 184 150 149 152 154 167 184 186 199 204 206 206 211 216 214 206 209 210 207
300 300 297 289 285 290 286 289 303 5 21 32 12 332 356 356 79 104 149 146 106 148 141 140 166 201 125 158 168 179 190 212 220 217 226 244 252 235 224 217 215 214 214
300 296 294 283 278 278 271 274 265 295 20 28 51 52 58 67 91 101 134 127 135 149 154 170 188 209 231 249 254 263 271 278 279 266 264 258 246 234 219 222 223 220 220
302 298 295 288 272 263 256 226 171 97 71 53 51 64 89 99 113 92 104 102 90 84 103 102 88 152 224 243 251 264 277 278 278 277 272 258 246 236 229 228 229 230 226
306 298 289 273 246 219 192 154 129 113 96 75 51 45 76 99 86 78 82 85 82 78 78 78 74 77 81 86 77 22 316 293 278 269 264 259 245 236 237 236 229 223 227
307 299 283 235 181 156 145 135 127 119 107 92 74 59 78 96 88 83 81 79 80 79 73 68 67 64 56 44 38 30 358 318 308 298 272 261 252 249 244 239 236 234 234
310 307 258 164 138 129 127 132 131 125 111 101 91 79 89 91 90 86 83 79 75 70 70 69 60 55 51 34 22 354 325 318 306 288 281 271 264 258 254 247 241 237 231
358 56 77 97 110 118 119 119 117 111 102 96 92 87 85 85 83 78 74 70 67 61 52 42 33 9 359 350 338 329 322 308 295 288 280 273 266 260 252 246 240 233 230
67 69 82 81 94 100 100 98 96 93 90 86 82 79 76 75 74 71 65 54 39 31 15 360 346 336 328 321 318 313 305 301 299 294 286 278 272 258 252 243 241 240 236
78 80 81 81 83 86 90 89 87 84 83 79 74 69 64 55 45 34 17 0 349 339 330 322 317 313 307 305 301 297 295 293 289 286 285 282 274 261 252 247 246 244 242
72 74 73 76 75 76 77 77 76 75 71 61 49 36 19 4 350 340 330 325 319 312 308 308 305 304 303 302 300 297 293 291 289 287 282 275 268 260 256 254 252 251 249